DW4230 Weather Reports


time (UTC)temp
C
wind
direction
speed
KPH
gust
KPH
rain 1hr
cm
rain 24hr
cm
rain mn
cm
humidity
%
barometer
mb
20260509011505 11 272 11.3 22.5 0.00 0.00 0.00 83 1012.5
20260509010034 11 124 11.3 17.7 0.00 0.00 0.00 82 1012.2
20260509004537 11 124 6.4 19.3 0.00 0.00 0.00 82 1011.8
20260509003035 11 229 11.3 22.5 0.00 0.00 0.00 81 1011.7
20260509001539 11 266 9.7 20.9 0.00 0.00 0.00 80 1011.4
20260509000045 11 124 14.5 25.7 0.00 0.00 0.00 78 1011.0
20260508234605 11 124 8.0 17.7 0.00 0.00 0.00 77 1010.8
20260508233045 11 270 6.4 14.5 0.00 0.00 0.00 74 1010.6
20260508231551 11 274 12.9 24.1 0.00 0.00 0.00 74 1010.3
20260508230047 12 259 8.0 19.3 0.00 0.00 0.00 77 1010.3
20260508224548 12 268 11.3 25.7 0.00 0.00 0.00 78 1010.2
20260508223038 12 260 12.9 24.1 0.00 0.00 0.00 78 1010.1
20260508221553 11 269 19.3 29.0 0.00 0.00 0.00 77 1010.2
20260508220047 11 124 20.9 30.6 0.00 0.00 0.00 79 1010.2
20260508214546 11 265 17.7 35.4 0.00 0.00 0.00 79 1010.0
20260508213037 12 124 9.7 25.7 0.00 0.00 0.00 73 1010.0
20260508211516 12 124 12.9 24.1 0.00 0.00 0.00 72 1009.7
20260508210037 13 243 6.4 24.1 0.00 0.00 0.00 71 1009.8
20260508204527 12 277 8.0 17.7 0.00 0.00 0.00 69 1009.8
20260508203032 10 332 3.2 17.7 0.00 0.00 0.00 81 1009.6
20260508201604 10 296 12.9 43.5 0.00 0.00 0.00 84 1010.2
20260508194602 12 305 24.1 37.0 0.00 0.00 0.00 69 1009.1
20260508193029 12 124 22.5 38.6 0.00 0.00 0.00 76 1009.0
20260508191617 12 257 19.3 35.4 0.00 0.00 0.00 78 1009.0
20260508190004 12 266 20.9 45.1 0.00 0.00 0.00 77 1009.0
20260508184615 12 124 22.5 41.8 0.00 0.00 0.00 75 1009.2
20260508183048 12 239 17.7 38.6 0.00 0.00 0.00 74 1009.2
20260508181548 12 270 22.5 37.0 0.00 0.00 0.00 71 1009.3
20260508180051 12 278 19.3 29.0 0.00 0.00 0.00 72 1009.5
20260508174542 12 270 20.9 33.8 0.00 0.00 0.00 70 1009.6
20260508173037 12 124 17.7 35.4 0.00 0.00 0.00 70 1009.6
20260508171544 12 124 19.3 37.0 0.00 0.00 0.00 68 1009.8
20260508170100 12 124 20.9 35.4 0.00 0.00 0.00 65 1009.7
20260508164511 12 282 19.3 32.2 0.00 0.00 0.00 63 1009.8
20260508163109 12 206 14.5 35.4 0.00 0.00 0.00 59 1009.9
20260508161552 12 124 20.9 38.6 0.00 0.00 0.00 62 1009.8
20260508160036 12 232 16.1 27.4 0.00 0.00 0.00 62 1010.0
20260508154522 13 239 14.5 27.4 0.00 0.00 0.00 60 1010.1
20260508153023 13 179 20.9 25.7 0.00 0.00 0.00 59 1010.0
20260508151520 14 208 14.5 19.3 0.00 0.00 0.00 46 1010.1
20260508150008 14 277 6.4 19.3 0.00 0.00 0.00 39 1010.1
20260508144513 13 283 4.8 17.7 0.00 0.00 0.00 40 1010.3
20260508143001 14 337 4.8 12.9 0.00 0.00 0.00 40 1010.2
20260508141508 13 346 4.8 11.3 0.00 0.00 0.00 39 1010.3
20260508140002 13 12 3.2 11.3 0.00 0.00 0.00 41 1010.3
20260508134532 13 313 8.0 16.1 0.00 0.00 0.00 42 1010.5
20260508133024 13 341 3.2 11.3 0.00 0.00 0.00 49 1010.6
20260508131534 12 326 6.4 14.5 0.00 0.00 0.00 48 1010.5
20260508130054 11 287 3.2 9.7 0.00 0.08 0.00 54 1010.4
20260508124504 11 336 4.8 12.9 0.00 0.08 0.00 49 1010.4
20260508123027 11 349 4.8 9.7 0.00 0.08 0.00 52 1010.3
20260508121519 10 338 3.2 11.3 0.00 0.08 0.00 56 1010.5
20260508120010 10 2 1.6 9.7 0.00 0.18 0.00 58 1010.2
20260508114509 10 347 4.8 11.3 0.00 0.18 0.00 57 1010.5
20260508113019 10 340 3.2 12.9 0.00 0.18 0.00 57 1010.6
20260508111550 10 323 4.8 12.9 0.00 0.18 0.00 58 1010.4
20260508110105 9 341 4.8 11.3 0.00 0.20 0.00 59 1010.2
20260508104539 8 359 3.2 11.3 0.00 0.20 0.00 61 1010.2
20260508103058 8 9 3.2 8.0 0.00 0.20 0.00 61 1010.0
20260508101557 8 5 1.6 9.7 0.00 0.20 0.00 62 1009.7
20260508100004 8 341 1.6 8.0 0.00 0.56 0.00 63 1009.7
20260508094522 8 344 3.2 9.7 0.00 0.56 0.00 62 1009.6
20260508093043 8 333 1.6 11.3 0.00 0.56 0.00 61 1009.4
20260508091559 8 334 4.8 14.5 0.00 0.56 0.00 61 1009.4
20260508090013 8 344 6.4 17.7 0.00 1.37 0.00 62 1009.3
20260508084516 8 14 3.2 16.1 0.00 1.37 0.00 61 1009.0
20260508083034 8 351 4.8 14.5 0.00 1.37 0.00 60 1008.7
20260508081540 8 14 6.4 16.1 0.00 1.37 0.00 62 1008.7
20260508080026 8 335 1.6 12.9 0.00 1.42 0.00 61 1008.3
20260508074515 8 350 3.2 8.0 0.00 1.42 0.00 60 1008.1
20260508073011 8 342 3.2 8.0 0.00 1.42 0.00 58 1007.9
20260508071520 9 345 3.2 9.7 0.00 1.42 0.00 57 1007.9
20260508070033 10 358 4.8 14.5 0.00 1.42 0.00 55 1007.8
20260508064604 10 354 6.4 14.5 0.00 1.42 0.00 56 1007.6
20260508063030 10 23 6.4 17.7 0.00 1.42 0.00 52 1007.7
20260508061522 10 16 6.4 16.1 0.00 1.42 0.00 53 1007.6
20260508060054 10 6 6.4 17.7 0.00 1.42 0.00 50 1007.6
20260508054603 11 2 8.0 17.7 0.00 1.42 0.00 49 1007.7
20260508053018 11 345 6.4 19.3 0.00 1.42 0.00 49 1007.7
20260508051522 11 355 6.4 17.7 0.00 1.42 0.00 49 1007.9
20260508050025 11 325 11.3 22.5 0.00 1.42 0.00 47 1007.7
20260508044524 11 4 9.7 24.1 0.00 1.42 0.00 50 1007.7
20260508043037 12 345 6.4 19.3 0.00 1.42 0.00 47 1007.6
20260508041517 12 355 8.0 22.5 0.00 1.42 0.00 46 1007.6
20260508040049 12 345 8.0 19.3 0.00 1.42 1.42 47 1007.7